Simultaneous Nadir Overpasses (SNOs) Predictions

Prediction of SNOs between METOP-A and TERRA Satellite Orbit:

Table of predicted SNOs for the next 14.0 days since TLE Epoch: 11/4/2012
Index Date (METOP-A) Time (METOP-A) METOP-A Lat,Lon Date (TERRA) Time (TERRA) TERRA Lat,Lon Distance(km) Time Diff (sec)
1 11/05/2012 10:46:35 -81.33,-113.91 11/05/2012 10:47:29 -81.33,-113.95 0.70 54
2 11/05/2012 11:37:14 81.34, 53.93 11/05/2012 11:36:55 81.34, 53.82 1.91 19
3 11/08/2012 06:20:52 -81.33, -47.50 11/08/2012 06:21:42 -81.33, -47.49 0.34 50
4 11/08/2012 07:11:31 81.34, 120.30 11/08/2012 07:11:08 81.34, 120.25 0.95 23
5 11/11/2012 01:55:09 -81.33, 18.80 11/11/2012 01:55:56 -81.33, 18.81 0.40 47
6 11/11/2012 02:45:48 81.34,-173.42 11/11/2012 02:45:22 81.33,-173.47 0.92 26
7 11/13/2012 21:29:24
